Gustavo Muriel

Scout - Barranquilla
23 Apr 2028
Sonntag
Verarbeitung

Persönlichkeit

Anpassungsfähigkeit (1) Ehrgeiz (1) Kontroverse (15) Loyalität (10) Druck (4) Professionalität (12) Fairness (19) Temperament (13)

Profil

Trainerstil Demokratisch
Lizenz Kontinentale C
Entschlossenheit 7
Menschenführung 9
Motivation 3
Disziplin 4
Arbeitszufriedenheit
76%
Ermüdung
0%
Rolle Scout
Gehalt 7.1K p/W
Vertrag 14.03.2030

Leistung

Verhalten Gut
Trainingseffektivität
22%
Spielerentwicklung
15%
Verletzungsprävention
10%
Taktische Umsetzung
40%

Letzte Ereignisse

Spieler begutachtet jetzt
Spieler begutachtet 7T her
Nahm an einer Scouting-Besprechung teil 7T her
Spieler begutachtet 7T her
Spieler begutachtet 7T her
Nahm an einer Scouting-Besprechung teil 14T her
Spieler begutachtet 14T her
Spieler begutachtet 21T her

Aktuell beobachtet

129
Spieler Verein Status Fähigkeit Vertrauen Beobachtet Zuletzt beobachtet Letzte Stimme
Luigi Canotto Perugia Aktiv 102 / 99 40% 1 18.04.2028 -
Mattia Valoti Vicenza Aktiv 129 / 113 40% 1 18.04.2028 -
Gianluca D'Auria Potenza Aktiv 106 / 125 40% 1 17.04.2028 -
Harry Cornick AFC Wimbledon Aktiv 103 / 111 40% 4 16.04.2028 -
Gianluca Caprari Padova Aktiv 119 / 114 40% 1 16.04.2028 -
Alexandr Ektov Nizhniy Novgorod Aktiv 101 / 129 40% 2 11.04.2028 -
Liam Gordon Port Vale Aktiv 108 / 105 40% 1 11.04.2028 -
Ifeagwu Ojukwu Asante Kotoko Aktiv 91 / 99 40% 3 10.04.2028 -
Liam Mandeville Chesterfield Aktiv 93 / 113 40% 1 10.04.2028 -
Walter Naranjo Exeter City Aktiv 100 / 85 40% 1 04.04.2028 -
Antonio Salado Ospitaletto Aktiv 106 / 81 40% 1 04.04.2028 -
Guille Donoso Gubbio Aktiv 90 / 89 40% 5 02.04.2028 -
Vladislav Sarveli Nizhniy Novgorod Aktiv 126 / 131 40% 1 01.04.2028 -
Jeremías Ramírez Vorskla Aktiv 104 / 94 40% 3 31.03.2028 -
Kamaldeen Essien Liberty Professionals Aktiv 119 / 131 40% 2 31.03.2028 -
Gonzalo Valenzuela Radnicki Nis Aktiv 106 / 102 40% 1 22.03.2028 -
Maximiliano Antúnez Metalist Aktiv 93 / 72 40% 1 17.03.2028 -
Merabi Uridia Fakel Aktiv 93 / 91 40% 1 17.03.2028 -
Emmanuel Ntim Hearts of Oak Aktiv 120 / 117 40% 1 16.03.2028 -
Antonín Růsek Zlin Aktiv 121 / 137 40% 1 15.03.2028 -
Valerio Verre Perugia Aktiv 108 / 131 40% 1 14.03.2028 -
Iván Balliu Rayo Vallecano Aktiv 133 / 111 40% 2 12.03.2028 -
Lautaro Coria KV Kortrijk Aktiv 121 / 87 40% 2 12.03.2028 -
Adam Smith Bristol Rovers Aktiv 119 / 148 40% 1 09.03.2028 -
Pietro Iemmello Catanzaro Aktiv 129 / 134 40% 1 08.03.2028 -
Vladyslav Sharai Veres Aktiv 98 / 110 40% 1 08.03.2028 -
Javi García Fakel Aktiv 87 / 109 40% 1 07.03.2028 -
Danil Karpov KAMAZ Aktiv 79 / 101 40% 1 06.03.2028 -
Lorenzo Insigne Sampdoria Aktiv 136 / 127 40% 2 05.03.2028 -
Kevin Palacios Santos Laguna Aktiv 117 / 103 40% 2 05.03.2028 -
Raúl Navarro Zlin Aktiv 93 / 84 40% 2 01.03.2028 -
Pablo López Chiapas Aktiv 120 / 115 40% 2 25.02.2028 -
Daniel Rivillo Flora Aktiv 99 / 85 40% 1 24.02.2028 -
Marcos Inzaurraga Chaika Aktiv 102 / 98 40% 1 24.02.2028 -
Santiago Chala Chernomorets Aktiv 83 / 96 40% 1 22.02.2028 -
Marco Sangalli KV Mechelen Aktiv 132 / 104 40% 1 22.02.2028 -
Jeffrey Schlupp Barnet Aktiv 127 / 113 40% 1 18.02.2028 -
Dmytro Shastal Livyi Bereh Aktiv 97 / 78 40% 1 18.02.2028 -
Yeangel Montero Naxxar Lions Aktiv 123 / 85 40% 2 17.02.2028 -
Marcel Čermák Teplice Aktiv 123 / 127 40% 1 17.02.2028 -
Luis Chávez Smorgon Aktiv 90 / 111 40% 1 14.02.2028 -
Robert Murić Floriana Aktiv 105 / 129 40% 1 12.02.2028 -
Guillermo Cotugno Racing Aktiv 122 / 116 40% 2 10.02.2028 -
Milton Ramos Agropecuario Argentino Abgelehnt 105 / 124 40% 3 03.01.2028 Ablehnen
Jarlan Barrera Real Cartagena Aktiv 120 / 127 40% 1 03.01.2028 -
Fernando Bersano Madryn Aktiv 118 / 114 40% 3 31.12.2027 -
Gino Olguín Ferro Carril Oeste Aktiv 108 / 114 40% 2 31.12.2027 -
Estanislao Jara Madryn Aktiv 108 / 104 40% 2 29.12.2027 -
Jhoao Rodríguez Deportes Quindio Aktiv 106 / 98 40% 1 29.12.2027 -
Andrés Montero Estudiantes de Merida Aktiv 110 / 95 40% 1 27.12.2027 -
Federico Barrandeguy Juventud Aktiv 114 / 105 40% 1 27.12.2027 -
Enzo Trinidad Colegiales Aktiv 115 / 119 40% 3 25.12.2027 -
Santiago Camacho Estudiantes Aktiv 94 / 112 40% 1 25.12.2027 -
Yvo Calleros Madryn Aktiv 117 / 117 40% 2 24.12.2027 -
Horacio Tijanovich Central Córdoba SdE Aktiv 110 / 106 40% 1 24.12.2027 -
Matías Samaniego Talleres Aktiv 106 / 87 40% 2 20.12.2027 -
Nicolas Restrepo Leones Abgelehnt 75 / 103 62% 1 20.12.2027 Ablehnen
Alejo Dramisino Atlanta Aktiv 120 / 128 40% 3 14.12.2027 -
Alexis Ríos Leones Abgelehnt 85 / 81 62% 1 13.12.2027 Ablehnen
Jonathan Cañete Portuguesa Aktiv 111 / 105 40% 3 08.12.2027 -
Damián Adín San Miguel Aktiv 114 / 120 40% 1 08.12.2027 -
Ezequiel Aguirre Defensores Aktiv 117 / 115 40% 3 23.11.2027 -
Enzo González Defensores Aktiv 101 / 98 40% 2 23.11.2027 -
José Barreto Quilmes Aktiv 121 / 115 40% 1 21.11.2027 -
Santiago Moyano Central Córdoba SdE Aktiv 113 / 133 40% 1 21.11.2027 -
Santiago Gutiérrez Alvarado Aktiv 107 / 113 40% 2 20.11.2027 -
Leonardo Marinucci Madryn Aktiv 107 / 115 40% 1 15.11.2027 -
Samson Olasupo Remo Stars Aktiv 112 / 119 40% 2 13.11.2027 -
Diego Vásquez Agropecuario Argentino Aktiv 112 / 118 40% 2 11.11.2027 -
Maximiliano Ortigoza Defensores Unidos Aktiv 112 / 116 40% 1 11.11.2027 -
Gianluca Pugliese Güemes Aktiv 112 / 106 40% 2 10.11.2027 -
Gustavo Turraca All Boys Aktiv 103 / 107 40% 1 10.11.2027 -
Jonathan Bay San Miguel Aktiv 114 / 103 40% 2 07.11.2027 -
Enzo Martínez Almagro Aktiv 109 / 117 40% 1 05.11.2027 -
Sergio González Racing Aktiv 113 / 101 40% 3 03.11.2027 -
Leandro Suhr Boston River Aktiv 121 / 106 40% 1 20.10.2027 -
Martín Giménez Defensores Unidos Aktiv 101 / 97 40% 1 19.10.2027 -
Shuaibu Ibrahim Wikki Tourists Aktiv 86 / 85 40% 1 19.10.2027 -
Santiago Rosales Mitre Aktiv 118 / 109 40% 1 13.10.2027 -
Ramiro Luna Quilmes Aktiv 121 / 125 40% 1 13.10.2027 -
Nicolás Retamar Ferro Carril Oeste Aktiv 111 / 107 40% 2 11.10.2027 -
Leandro Allende Colón Aktiv 108 / 102 40% 2 10.10.2027 -
Juan Rincon Atletico Venezuela Aktiv 98 / 105 40% 1 10.10.2027 -
Fernando Martínez Central Córdoba SdE Aktiv 123 / 131 40% 3 04.10.2027 -
David Veliz Güemes Aktiv 106 / 106 40% 1 03.10.2027 -
Marcos Enrique Tristán Suárez Aktiv 112 / 122 40% 1 03.10.2027 -
Jacobo Kouffati Deportivo Lara Aktiv 116 / 108 40% 2 01.10.2027 -
Rubén Rojas Portuguesa Aktiv 102 / 98 40% 1 30.09.2027 -
Gonzalo Asis Almagro Aktiv 114 / 107 40% 2 26.09.2027 -
Franco Coronel San Martín SJ Aktiv 121 / 99 40% 1 24.09.2027 -
Brian Farioli Estudiantes Aktiv 121 / 112 40% 2 21.09.2027 -
Pablo Parra Universidad de Concepcion Aktiv 107 / 127 40% 1 21.09.2027 -
Augusto Berrondo Tristán Suárez Aktiv 113 / 111 40% 2 19.09.2027 -
Adeshina Gata Kwara United Aktiv 81 / 92 40% 1 10.09.2027 -
Mauricio Rosales Central Norte Aktiv 105 / 98 40% 1 05.09.2027 -
Pablo López Tacuarembo Aktiv 112 / 111 40% 1 28.08.2027 -
Lautaro Disanto Defensores Unidos Aktiv 105 / 98 40% 1 25.08.2027 -
Cristian Barros Cerro Aktiv 114 / 120 40% 1 25.08.2027 -
Timothy Zechariah Rivers United Aktiv 91 / 88 40% 2 23.08.2027 -
Nicolás Fernández Tristán Suárez Aktiv 105 / 123 40% 1 23.08.2027 -
Lucas Ontivero PWD Bamenda Aktiv 108 / 85 40% 3 21.08.2027 -
Julián Brea Cobresal Aktiv 100 / 101 40% 1 21.08.2027 -
Santiago Costa Albion Aktiv 112 / 106 40% 1 17.08.2027 -
Michael Covea Plaza Colonia Aktiv 108 / 121 40% 1 17.08.2027 -
Nicolás Barrientos All Boys Aktiv 110 / 122 40% 1 16.08.2027 -
Johan Moreno Portuguesa Aktiv 104 / 114 40% 2 15.08.2027 -
Brian González Atenas Aktiv 97 / 115 40% 1 10.08.2027 -
Dan Butler Barrow AFC Aktiv 105 / 128 40% 1 28.07.2027 -
Robert Hernández Carabobo Aktiv 120 / 114 40% 2 19.07.2027 -
Francisco Molina Gimnasia y Esgrima Aktiv 101 / 103 40% 1 19.07.2027 -
Domi Berlanga Cavese Aktiv 89 / 85 40% 1 17.07.2027 -
Richard Celis Zamora Aktiv 101 / 105 40% 2 16.07.2027 -
Tom Conlon Oldham Athletic Aktiv 99 / 110 40% 2 13.07.2027 -
Martín García Atlanta Aktiv 120 / 123 40% 1 10.07.2027 -
Nathaniel Méndez-Laing Milton Keynes Dons Aktiv 108 / 87 40% 1 28.06.2027 -
Simone Verdi Benevento Aktiv 108 / 113 40% 1 28.06.2027 -
Nick Powell Bristol Rovers Aktiv 90 / 113 40% 1 26.06.2027 -
Jurgi Oteo Vicenza Aktiv 105 / 92 40% 2 20.06.2027 -
Don Bolsius Ascoli Aktiv 103 / 124 40% 1 20.06.2027 -
Cristian Battocchio Monopoli Aktiv 108 / 132 40% 1 18.06.2027 -
Ben Whitfield Barrow AFC Aktiv 89 / 105 40% 1 18.06.2027 -
Sebastián González San Martín SJ Aktiv 127 / 122 40% 1 15.06.2027 -
Hernán Toledo Albion Aktiv 121 / 107 40% 1 08.06.2027 -
Agustín Maidana San Marcos de Arica Aktiv 105 / 92 40% 1 05.08.2026 -
Heung-Min Son Los Angeles Football Club Aktiv 138 / 129 40% 1 04.08.2026 -
Fernando Román Defensa y Justicia Aktiv 115 / 92 40% 1 03.08.2026 -
Josué Estrada Universitario Aktiv 111 / 107 40% 1 03.08.2026 -
Christian Bravo Antofagasta Aktiv 106 / 124 40% 1 02.08.2026 -
Michael Hoyos Sporting Cristal Aktiv 136 / 112 40% 1 02.08.2026 -